Welcome to Northern Hawkes Bay. New Zealand.
PWS Header
      nz Flag



Hit Counter


W3C Valid W3C Valid logo


    Wairoa

Select any of the Stations below to visit their websites.










Historic Data from Weather Underground
Select the location of interest below. Wairoa is the default. Please have patience, this Data is slow to load in.
Northern Hawkes Bay Historical Data
Daily Summary for February 23, 2017 Units:  Metric    English   Both
« Previous Day
Next Day »
Daily Weekly Monthly Yearly Custom
  High: Low: Average:
Temperature: 22.4 °C 14.2 °C 17.9 °C
Dew Point: 18.3 °C 13.6 °C 16.1 °C
Humidity: 99% 72% 89%
Wind Speed: 18.3km/h 0.0km/h 6.2km/h
Wind Gust: 25.6km/h - -
Wind- - SW
Pressure: 1023.6 hPa 1018.5 hPa -
Precipitation: 0.5 mm    
Historical Graphs
 
 
Tabular Data for February 23, 2017
Time Temperature Dew Point Pressure Wind Wind Speed Wind Gust Humidity Rainfall Rate (Hourly) solar
00:03 17.7 °C 14.2 °C 1018.5 hPa North 1.1 km/h 2.6 km/h 80% 0.0 mm 0 W/m2
00:08 17.6 °C 14.3 °C 1018.5 hPa NNW 1.1 km/h 3.5 km/h 81% 0.0 mm 0 W/m2
00:13 17.5 °C 14.2 °C 1018.5 hPa Calm   3.5 km/h 81% 0.0 mm 0 W/m2
00:18 17.3 °C 14.0 °C 1018.8 hPa Calm   2.6 km/h 81% 0.0 mm 0 W/m2
00:23 17.1 °C 13.8 °C 1018.5 hPa Calm     81% 0.0 mm 0 W/m2
00:28 16.9 °C 14.0 °C 1018.5 hPa Calm   2.6 km/h 83% 0.0 mm 0 W/m2
00:33 16.8 °C 13.9 °C 1018.5 hPa Calm   2.6 km/h 83% 0.0 mm 0 W/m2
00:38 16.8 °C 14.1 °C 1018.5 hPa Calm   2.6 km/h 84% 0.0 mm 0 W/m2
00:43 16.8 °C 14.3 °C 1018.5 hPa Calm     85% 0.0 mm 0 W/m2
00:48 16.7 °C 14.2 °C 1018.5 hPa Calm     85% 0.0 mm 0 W/m2
00:53 16.7 °C 14.2 °C 1018.5 hPa Calm     85% 0.0 mm 0 W/m2
00:58 16.6 °C 14.1 °C 1018.5 hPa Calm     85% 0.0 mm 0 W/m2
01:03 16.4 °C 13.9 °C 1018.8 hPa Calm     85% 0.0 mm 0 W/m2
01:08 16.2 °C 13.7 °C 1018.5 hPa Calm     85% 0.0 mm 0 W/m2
01:13 16.1 °C 13.6 °C 1018.8 hPa Calm     85% 0.0 mm 0 W/m2
01:18 16.0 °C 13.7 °C 1018.8 hPa Calm     86% 0.0 mm 0 W/m2
01:23 16.0 °C 13.8 °C 1018.8 hPa Calm     87% 0.0 mm 0 W/m2
01:28 15.9 °C 13.9 °C 1018.8 hPa Calm     88% 0.0 mm 0 W/m2
01:33 15.8 °C 13.8 °C 1018.5 hPa Calm     88% 0.0 mm 0 W/m2
01:38 15.7 °C 13.7 °C 1018.5 hPa Calm     88% 0.0 mm 0 W/m2
01:43 15.7 °C 13.9 °C 1018.5 hPa Calm     89% 0.0 mm 0 W/m2
01:48 15.6 °C 14.0 °C 1018.8 hPa North 2.6 km/h 5.0 km/h 90% 0.0 mm 0 W/m2
01:53 15.6 °C 14.2 °C 1018.8 hPa North 3.5 km/h 5.0 km/h 91% 0.0 mm 0 W/m2
01:58 15.4 °C 14.1 °C 1018.5 hPa Calm   5.0 km/h 92% 0.0 mm 0 W/m2
02:03 15.3 °C 14.0 °C 1018.5 hPa NNW 1.1 km/h 3.5 km/h 92% 0.0 mm 0 W/m2
02:08 15.2 °C 14.1 °C 1018.5 hPa Calm   2.6 km/h 93% 0.0 mm 0 W/m2
02:13 15.2 °C 14.1 °C 1018.5 hPa Calm   2.6 km/h 93% 0.0 mm 0 W/m2
02:18 15.1 °C 14.0 °C 1018.5 hPa Calm   2.6 km/h 93% 0.0 mm 0 W/m2
02:23 15.1 °C 14.2 °C 1018.5 hPa NNE 3.5 km/h 6.1 km/h 94% 0.0 mm 0 W/m2
02:28 15.1 °C 14.2 °C 1018.5 hPa Calm   6.1 km/h 94% 0.0 mm 0 W/m2
02:33 15.0 °C 14.1 °C 1018.5 hPa NNW 1.1 km/h 6.1 km/h 94% 0.0 mm 0 W/m2
02:38 15.0 °C 14.1 °C 1018.5 hPa NW 2.6 km/h 5.0 km/h 94% 0.0 mm 0 W/m2
02:43 14.9 °C 14.1 °C 1018.5 hPa Calm   5.0 km/h 95% 0.0 mm 0 W/m2
02:48 14.8 °C 14.2 °C 1018.8 hPa NNW 2.6 km/h 5.0 km/h 96% 0.0 mm 0 W/m2
02:53 14.8 °C 14.2 °C 1018.8 hPa Calm   5.0 km/h 96% 0.0 mm 0 W/m2
02:58 14.7 °C 14.1 °C 1018.5 hPa NNW 2.6 km/h 3.5 km/h 96% 0.0 mm 0 W/m2
03:03 14.7 °C 14.1 °C 1018.5 hPa NNW 3.5 km/h 5.0 km/h 96% 0.0 mm 0 W/m2
03:08 14.7 °C 14.1 °C 1018.8 hPa NNW 2.6 km/h 6.1 km/h 96% 0.0 mm 0 W/m2
03:13 14.8 °C 14.3 °C 1018.5 hPa NNW 2.6 km/h 6.1 km/h 97% 0.0 mm 0 W/m2
03:18 14.9 °C 14.4 °C 1018.5 hPa North 2.6 km/h 6.1 km/h 97% 0.0 mm 0 W/m2
03:23 15.0 °C 14.4 °C 1018.8 hPa NNW 2.6 km/h 6.1 km/h 96% 0.0 mm 0 W/m2
03:28 15.1 °C 14.5 °C 1018.8 hPa NNW 2.6 km/h 7.2 km/h 96% 0.0 mm 0 W/m2
03:33 15.1 °C 14.5 °C 1018.8 hPa NNW 5.0 km/h 7.2 km/h 96% 0.0 mm 0 W/m2
03:38 15.1 °C 14.5 °C 1018.5 hPa NNW 2.6 km/h 8.7 km/h 96% 0.0 mm 0 W/m2
03:43 15.0 °C 14.4 °C 1018.5 hPa NW 1.1 km/h 8.7 km/h 96% 0.0 mm 0 W/m2
03:48 15.0 °C 14.4 °C 1018.8 hPa NW 2.6 km/h 7.2 km/h 96% 0.0 mm 0 W/m2
03:53 15.0 °C 14.2 °C 1018.8 hPa NW 5.0 km/h 7.2 km/h 95% 0.0 mm 0 W/m2
03:58 14.9 °C 14.3 °C 1018.8 hPa NW 6.1 km/h 8.7 km/h 96% 0.0 mm 0 W/m2
04:03 14.9 °C 14.3 °C 1018.5 hPa NW 5.0 km/h 8.7 km/h 96% 0.0 mm 0 W/m2
04:08 14.8 °C 14.2 °C 1018.5 hPa NW 6.1 km/h 8.7 km/h 96% 0.0 mm 0 W/m2
04:13 14.8 °C 14.2 °C 1018.5 hPa NNW 3.5 km/h 8.7 km/h 96% 0.0 mm 0 W/m2
04:18 14.7 °C 14.1 °C 1018.8 hPa NW 3.5 km/h 8.7 km/h 96% 0.0 mm 0 W/m2
04:23 14.7 °C 14.1 °C 1018.8 hPa NNW 5.0 km/h 8.7 km/h 96% 0.0 mm 0 W/m2
04:28 14.7 °C 14.1 °C 1018.8 hPa NNW 5.0 km/h 8.7 km/h 96% 0.0 mm 0 W/m2
04:33 14.7 °C 14.1 °C 1018.8 hPa NW 2.6 km/h 8.7 km/h 96% 0.0 mm 0 W/m2
04:38 14.8 °C 14.3 °C 1018.8 hPa NNW 2.6 km/h 7.2 km/h 97% 0.0 mm 0 W/m2
04:43 14.8 °C 14.3 °C 1018.8 hPa North 5.0 km/h 9.7 km/h 97% 0.0 mm 0 W/m2
04:48 14.8 °C 14.3 °C 1018.8 hPa NNW 3.5 km/h 9.7 km/h 97% 0.0 mm 0 W/m2
04:53 14.8 °C 14.3 °C 1018.8 hPa NW 3.5 km/h 9.7 km/h 97% 0.0 mm 0 W/m2
04:58 14.8 °C 14.3 °C 1018.8 hPa NNW 3.5 km/h 7.2 km/h 97% 0.0 mm 0 W/m2
05:03 14.8 °C 14.3 °C 1018.8 hPa NW 3.5 km/h 7.2 km/h 97% 0.0 mm 0 W/m2
05:08 14.7 °C 14.2 °C 1018.8 hPa NW 3.5 km/h 7.2 km/h 97% 0.0 mm 0 W/m2
05:13 14.7 °C 14.2 °C 1018.8 hPa NNW 3.5 km/h 8.7 km/h 97% 0.0 mm 0 W/m2
05:18 14.7 °C 14.2 °C 1018.8 hPa NNW 3.5 km/h 8.7 km/h 97% 0.0 mm 0 W/m2
05:23 14.7 °C 14.2 °C 1018.8 hPa NNW 2.6 km/h 7.2 km/h 97% 0.0 mm 0 W/m2
05:28 14.7 °C 14.2 °C 1019.2 hPa Calm   7.2 km/h 97% 0.0 mm 0 W/m2
05:33 14.7 °C 14.2 °C 1019.2 hPa NW 5.0 km/h 7.2 km/h 97% 0.0 mm 0 W/m2
05:43 14.7 °C 14.2 °C 1018.8 hPa NW 2.6 km/h 8.7 km/h 97% 0.0 mm 0 W/m2
05:48 14.6 °C 14.1 °C 1019.2 hPa NW 1.1 km/h 7.2 km/h 97% 0.0 mm 0 W/m2
05:53 14.6 °C 14.1 °C 1019.2 hPa NNW 2.6 km/h 6.1 km/h 97% 0.0 mm 0 W/m2
05:58 14.5 °C 14.1 °C 1019.2 hPa NW 6.1 km/h 11.1 km/h 97% 0.0 mm 0 W/m2
06:03 14.5 °C 14.1 °C 1019.5 hPa NW 1.1 km/h 11.1 km/h 97% 0.0 mm 0 W/m2
06:08 14.4 °C 13.9 °C 1019.5 hPa NNW 5.0 km/h 7.2 km/h 97% 0.0 mm 0 W/m2
06:13 14.4 °C 13.9 °C 1019.5 hPa North 1.1 km/h 7.2 km/h 97% 0.0 mm 0 W/m2
06:18 14.4 °C 13.9 °C 1019.5 hPa North 1.1 km/h 7.2 km/h 97% 0.0 mm 0 W/m2
06:23 14.3 °C 14.0 °C 1019.5 hPa North 1.1 km/h 6.1 km/h 98% 0.0 mm 0 W/m2
06:28 14.3 °C 14.0 °C 1019.5 hPa North 2.6 km/h 6.1 km/h 98% 0.0 mm 0 W/m2
06:33 14.2 °C 13.9 °C 1019.5 hPa North 3.5 km/h 7.2 km/h 98% 0.0 mm 0 W/m2
06:38 14.2 °C 13.9 °C 1019.5 hPa North 3.5 km/h 7.2 km/h 98% 0.0 mm 0 W/m2
06:43 14.2 °C 13.9 °C 1019.9 hPa NNW 1.1 km/h 7.2 km/h 98% 0.0 mm 0 W/m2
06:48 14.2 °C 13.9 °C 1019.9 hPa NNW 3.5 km/h 7.2 km/h 98% 0.0 mm 2 W/m2
06:53 14.2 °C 13.9 °C 1019.9 hPa NNW 3.5 km/h 7.2 km/h 98% 0.0 mm 4 W/m2
06:58 14.3 °C 14.0 °C 1019.9 hPa NW 1.1 km/h 6.1 km/h 98% 0.0 mm 9 W/m2
07:16 14.3 °C 14.2 °C 1020.2 hPa WNW 1.1 km/h 6.1 km/h 99% 0.0 mm 29 W/m2
07:21 14.4 °C 14.3 °C 1020.2 hPa NW 3.5 km/h 7.2 km/h 99% 0.0 mm 35 W/m2
07:26 14.4 °C 14.3 °C 1020.2 hPa NW 2.6 km/h 7.2 km/h 99% 0.0 mm 41 W/m2
07:31 14.6 °C 14.4 °C 1020.2 hPa NW 3.5 km/h 7.2 km/h 99% 0.0 mm 37 W/m2
07:36 14.6 °C 14.4 °C 1020.2 hPa NW 6.1 km/h 8.7 km/h 99% 0.0 mm 45 W/m2
07:41 14.7 °C 14.6 °C 1020.2 hPa NW 3.5 km/h 9.7 km/h 99% 0.0 mm 59 W/m2
07:46 14.9 °C 14.8 °C 1020.2 hPa NW 3.5 km/h 9.7 km/h 99% 0.0 mm 67 W/m2
07:51 15.0 °C 14.7 °C 1020.5 hPa NNW 3.5 km/h 7.2 km/h 98% 0.0 mm 75 W/m2
07:56 15.2 °C 14.9 °C 1020.5 hPa NNW 5.0 km/h 7.2 km/h 98% 0.0 mm 81 W/m2
08:01 15.3 °C 15.0 °C 1020.5 hPa NNW 3.5 km/h 8.7 km/h 98% 0.0 mm 88 W/m2
08:06 15.5 °C 15.1 °C 1020.5 hPa NNW 1.1 km/h 8.7 km/h 97% 0.0 mm 94 W/m2
08:11 15.7 °C 15.2 °C 1020.5 hPa NW 6.1 km/h 8.7 km/h 97% 0.0 mm 109 W/m2
08:16 15.8 °C 15.2 °C 1020.5 hPa NW 2.6 km/h 8.7 km/h 96% 0.0 mm 122 W/m2
08:21 16.2 °C 15.4 °C 1020.5 hPa NNW 1.1 km/h 8.7 km/h 95% 0.0 mm 148 W/m2
08:26 16.6 °C 15.7 °C 1020.5 hPa NNW 5.0 km/h 7.2 km/h 94% 0.0 mm 157 W/m2
08:31 16.8 °C 15.7 °C 1020.5 hPa NNW 5.0 km/h 8.7 km/h 93% 0.0 mm 158 W/m2
08:36 17.0 °C 15.6 °C 1020.5 hPa North 2.6 km/h 8.7 km/h 91% 0.0 mm 136 W/m2
08:41 17.3 °C 15.7 °C 1020.5 hPa North 5.0 km/h 8.7 km/h 90% 0.0 mm 119 W/m2
08:46 17.6 °C 15.8 °C 1020.5 hPa Calm   6.1 km/h 89% 0.0 mm 123 W/m2
08:51 17.8 °C 15.8 °C 1020.5 hPa NNE 1.1 km/h 7.2 km/h 88% 0.0 mm 105 W/m2
08:56 18.0 °C 16.0 °C 1020.9 hPa North 3.5 km/h 7.2 km/h 88% 0.0 mm 107 W/m2
09:01 17.9 °C 15.6 °C 1020.9 hPa North 5.0 km/h 9.7 km/h 86% 0.0 mm 137 W/m2
09:06 18.1 °C 15.9 °C 1020.9 hPa North 3.5 km/h 9.7 km/h 87% 0.0 mm 168 W/m2
09:11 18.6 °C 16.6 °C 1020.9 hPa Calm   7.2 km/h 88% 0.0 mm 210 W/m2
09:16 19.3 °C 17.1 °C 1020.9 hPa Calm   6.1 km/h 87% 0.0 mm 226 W/m2
09:21 20.0 °C 17.2 °C 1020.9 hPa Calm   2.6 km/h 84% 0.0 mm 218 W/m2
09:26 20.4 °C 17.4 °C 1020.9 hPa Calm   5.0 km/h 83% 0.0 mm 329 W/m2
09:31 21.4 °C 18.2 °C 1020.9 hPa Calm   5.0 km/h 82% 0.0 mm 213 W/m2
09:36 22.2 °C 17.8 °C 1020.9 hPa SSW 2.6 km/h 6.1 km/h 76% 0.0 mm 295 W/m2
09:41 21.9 °C 17.3 °C 1021.2 hPa South 6.1 km/h 9.7 km/h 75% 0.0 mm 481 W/m2
09:46 21.9 °C 17.1 °C 1021.2 hPa South 5.0 km/h 9.7 km/h 74% 0.0 mm 297 W/m2
09:51 21.8 °C 17.0 °C 1021.2 hPa South 7.2 km/h 9.7 km/h 74% 0.0 mm 335 W/m2
09:56 22.2 °C 17.4 °C 1021.2 hPa South 7.2 km/h 11.1 km/h 74% 0.0 mm 388 W/m2
10:01 22.4 °C 17.1 °C 1021.6 hPa South 7.2 km/h 12.2 km/h 72% 0.0 mm 370 W/m2
10:06 22.1 °C 16.8 °C 1021.6 hPa SSW 5.0 km/h 12.2 km/h 72% 0.0 mm 407 W/m2
10:11 21.8 °C 16.8 °C 1021.6 hPa SW 9.7 km/h 12.2 km/h 73% 0.0 mm 339 W/m2
10:16 21.1 °C 16.5 °C 1021.6 hPa SSW 8.7 km/h 14.8 km/h 75% 0.0 mm 312 W/m2
10:21 20.8 °C 16.8 °C 1021.2 hPa SSW 6.1 km/h 14.8 km/h 78% 0.0 mm 330 W/m2
10:26 20.6 °C 17.2 °C 1021.6 hPa SSW 11.1 km/h 14.8 km/h 81% 0.0 mm 253 W/m2
10:31 20.2 °C 17.2 °C 1021.6 hPa SSW 8.7 km/h 14.8 km/h 83% 0.0 mm 162 W/m2
10:36 19.8 °C 17.2 °C 1021.6 hPa SW 1.1 km/h 13.4 km/h 85% 0.0 mm 137 W/m2
10:41 19.8 °C 17.4 °C 1021.6 hPa SSW 6.1 km/h 11.1 km/h 86% 0.0 mm 117 W/m2
10:46 19.7 °C 17.1 °C 1021.6 hPa SSW 12.2 km/h 17.2 km/h 85% 0.0 mm 54 W/m2
10:51 19.2 °C 17.0 °C 1021.6 hPa SW 11.1 km/h 19.5 km/h 87% 0.0 mm 49 W/m2
10:56 18.7 °C 17.2 °C 1021.9 hPa SW 7.2 km/h 20.9 km/h 91% 0.3 mm 51 W/m2
11:01 18.4 °C 16.9 °C 1021.9 hPa SW 9.7 km/h 20.9 km/h 91% 0.3 mm 61 W/m2
11:06 18.2 °C 16.7 °C 1021.6 hPa SW 7.2 km/h 17.2 km/h 91% 0.3 mm 46 W/m2
11:11 18.3 °C 17.0 °C 1021.6 hPa SW 11.1 km/h 17.2 km/h 92% 0.3 mm 65 W/m2
11:16 18.4 °C 17.1 °C 1021.6 hPa SSW 8.7 km/h 19.5 km/h 92% 0.3 mm 104 W/m2
11:21 18.5 °C 17.2 °C 1021.6 hPa SW 6.1 km/h 19.5 km/h 92% 0.3 mm 120 W/m2
11:26 18.8 °C 17.3 °C 1021.6 hPa WSW 11.1 km/h 18.3 km/h 91% 0.3 mm 181 W/m2
11:31 19.0 °C 17.2 °C 1021.9 hPa WSW 8.7 km/h 18.3 km/h 89% 0.3 mm 326 W/m2
11:36 19.6 °C 17.8 °C 1021.9 hPa SW 11.1 km/h 15.8 km/h 89% 0.3 mm 423 W/m2
11:41 20.2 °C 17.8 °C 1021.9 hPa SW 7.2 km/h 15.8 km/h 86% 0.3 mm 474 W/m2
11:46 20.8 °C 18.0 °C 1021.9 hPa SSW 11.1 km/h 15.8 km/h 84% 0.3 mm 448 W/m2
11:51 21.0 °C 18.0 °C 1021.9 hPa SSW 8.7 km/h 17.2 km/h 83% 0.3 mm 647 W/m2
11:56 21.5 °C 18.3 °C 1021.9 hPa SSW 8.7 km/h 17.2 km/h 82% 0.0 mm 468 W/m2
12:01 21.2 °C 17.6 °C 1021.9 hPa South 11.1 km/h 17.2 km/h 80% 0.0 mm 416 W/m2
12:06 21.0 °C 17.4 °C 1021.9 hPa South 9.7 km/h 17.2 km/h 80% 0.0 mm 435 W/m2
12:11 21.2 °C 17.8 °C 1021.9 hPa SSW 12.2 km/h 17.2 km/h 81% 0.0 mm 425 W/m2
12:16 21.3 °C 17.3 °C 1021.9 hPa SSW 14.8 km/h 17.2 km/h 78% 0.0 mm 362 W/m2
12:21 21.2 °C 17.0 °C 1021.9 hPa SSW 6.1 km/h 17.2 km/h 77% 0.0 mm 344 W/m2
12:26 21.2 °C 17.4 °C 1021.9 hPa South 5.0 km/h 17.2 km/h 79% 0.0 mm 377 W/m2
12:31 21.3 °C 17.3 °C 1021.9 hPa South 9.7 km/h 13.4 km/h 78% 0.0 mm 419 W/m2
12:36 21.3 °C 17.1 °C 1021.9 hPa South 5.0 km/h 14.8 km/h 77% 0.0 mm 435 W/m2
12:41 21.6 °C 17.4 °C 1021.9 hPa South 6.1 km/h 14.8 km/h 77% 0.0 mm 397 W/m2
12:46 21.8 °C 17.2 °C 1021.9 hPa SSE 7.2 km/h 12.2 km/h 75% 0.0 mm 393 W/m2
12:51 21.8 °C 17.0 °C 1021.9 hPa SSE 7.2 km/h 13.4 km/h 74% 0.0 mm 471 W/m2
12:56 21.7 °C 16.9 °C 1021.9 hPa South 6.1 km/h 13.4 km/h 74% 0.0 mm 514 W/m2
13:01 21.8 °C 16.8 °C 1022.2 hPa South 9.7 km/h 13.4 km/h 73% 0.0 mm 497 W/m2
13:06 21.7 °C 16.9 °C 1022.2 hPa South 11.1 km/h 13.4 km/h 74% 0.0 mm 402 W/m2
13:11 21.6 °C 17.0 °C 1022.2 hPa SSW 9.7 km/h 14.8 km/h 75% 0.0 mm 412 W/m2
13:16 21.3 °C 16.7 °C 1021.9 hPa SSW 11.1 km/h 14.8 km/h 75% 0.0 mm 380 W/m2
13:21 21.1 °C 16.7 °C 1022.2 hPa South 11.1 km/h 18.3 km/h 76% 0.0 mm 316 W/m2
13:26 20.9 °C 17.1 °C 1022.2 hPa South 12.2 km/h 18.3 km/h 79% 0.0 mm 271 W/m2
13:31 20.7 °C 16.9 °C 1022.2 hPa SSW 12.2 km/h 17.2 km/h 79% 0.0 mm 249 W/m2
13:36 20.6 °C 17.1 °C 1022.2 hPa SW 12.2 km/h 15.8 km/h 80% 0.0 mm 270 W/m2
13:41 20.6 °C 16.8 °C 1022.2 hPa SW 8.7 km/h 15.8 km/h 79% 0.0 mm 278 W/m2
13:46 20.6 °C 16.4 °C 1022.2 hPa SSW 11.1 km/h 18.3 km/h 77% 0.0 mm 264 W/m2
13:51 20.6 °C 16.7 °C 1022.2 hPa SSW 11.1 km/h 18.3 km/h 78% 0.0 mm 270 W/m2
13:56 20.7 °C 16.6 °C 1022.2 hPa SSW 13.4 km/h 18.3 km/h 77% 0.0 mm 273 W/m2
14:01 20.8 °C 16.8 °C 1022.2 hPa SSW 9.7 km/h 18.3 km/h 78% 0.0 mm 236 W/m2
14:06 21.0 °C 16.4 °C 1022.2 hPa SSW 7.2 km/h 17.2 km/h 75% 0.0 mm 282 W/m2
14:11 20.8 °C 17.4 °C 1022.2 hPa SSW 14.8 km/h 25.6 km/h 81% 0.0 mm 354 W/m2
14:16 20.5 °C 17.6 °C 1022.2 hPa SSW 9.7 km/h 25.6 km/h 83% 0.0 mm 351 W/m2
14:21 20.5 °C 17.6 °C 1022.2 hPa SSW 13.4 km/h 23.3 km/h 83% 0.3 mm 372 W/m2
14:26 20.4 °C 17.6 °C 1022.2 hPa South 17.2 km/h 24.5 km/h 84% 0.3 mm 317 W/m2
14:31 20.1 °C 17.5 °C 1022.2 hPa South 12.2 km/h 24.5 km/h 85% 0.3 mm 309 W/m2
14:36 20.1 °C 17.5 °C 1022.2 hPa South 14.8 km/h 24.5 km/h 85% 0.3 mm 305 W/m2
14:41 20.0 °C 17.4 °C 1022.2 hPa South 18.3 km/h 24.5 km/h 85% 0.3 mm 334 W/m2
14:46 20.0 °C 17.6 °C 1022.2 hPa South 17.2 km/h 23.3 km/h 86% 0.3 mm 304 W/m2
14:51 20.0 °C 17.6 °C 1022.2 hPa SSW 9.7 km/h 23.3 km/h 86% 0.3 mm 262 W/m2
14:56 20.0 °C 17.6 °C 1022.2 hPa SSW 8.7 km/h 21.9 km/h 86% 0.3 mm 215 W/m2
15:01 19.9 °C 17.7 °C 1022.2 hPa SSW 15.8 km/h 23.3 km/h 87% 0.3 mm 243 W/m2
15:06 19.6 °C 17.4 °C 1022.2 hPa SSW 13.4 km/h 25.6 km/h 87% 0.3 mm 242 W/m2
15:11 19.6 °C 17.6 °C 1022.2 hPa SSW 15.8 km/h 25.6 km/h 88% 0.3 mm 241 W/m2
15:16 19.4 °C 17.4 °C 1022.2 hPa South 11.1 km/h 23.3 km/h 88% 0.3 mm 255 W/m2
15:21 19.5 °C 17.7 °C 1022.2 hPa SSW 11.1 km/h 23.3 km/h 89% 0.0 mm 226 W/m2
15:26 19.4 °C 17.4 °C 1022.2 hPa SSW 14.8 km/h 20.9 km/h 88% 0.0 mm 200 W/m2
15:31 19.4 °C 17.4 °C 1022.2 hPa South 12.2 km/h 20.9 km/h 88% 0.0 mm 173 W/m2
15:36 19.4 °C 17.4 °C 1022.2 hPa SSW 8.7 km/h 21.9 km/h 88% 0.0 mm 175 W/m2
15:41 19.5 °C 17.5 °C 1022.2 hPa SW 11.1 km/h 21.9 km/h 88% 0.0 mm 183 W/m2
15:46 19.4 °C 17.4 °C 1022.2 hPa SSW 12.2 km/h 19.5 km/h 88% 0.0 mm 173 W/m2
15:51 19.5 °C 17.5 °C 1022.2 hPa SSW 8.7 km/h 19.5 km/h 88% 0.0 mm 153 W/m2
15:56 19.4 °C 17.2 °C 1022.2 hPa SSW 9.7 km/h 21.9 km/h 87% 0.0 mm 195 W/m2
16:01 19.5 °C 17.5 °C 1022.2 hPa South 13.4 km/h 21.9 km/h 88% 0.0 mm 198 W/m2
16:06 19.5 °C 17.5 °C 1022.2 hPa SSW 9.7 km/h 20.9 km/h 88% 0.0 mm 241 W/m2
16:11 19.7 °C 17.5 °C 1022.2 hPa SSW 15.8 km/h 20.9 km/h 87% 0.0 mm 242 W/m2
16:16 19.7 °C 17.5 °C 1022.2 hPa SSW 14.8 km/h 19.5 km/h 87% 0.0 mm 149 W/m2
16:21 19.5 °C 17.3 °C 1022.2 hPa SSW 14.8 km/h 19.5 km/h 87% 0.0 mm 172 W/m2
16:26 19.3 °C 17.3 °C 1022.2 hPa SSW 11.1 km/h 24.5 km/h 88% 0.0 mm 149 W/m2
16:31 19.3 °C 17.3 °C 1022.2 hPa SSW 15.8 km/h 25.6 km/h 88% 0.0 mm 150 W/m2
16:36 19.3 °C 17.4 °C 1022.2 hPa SSW 15.8 km/h 25.6 km/h 89% 0.0 mm 160 W/m2
16:41 19.3 °C 17.3 °C 1022.2 hPa SSW 12.2 km/h 25.6 km/h 88% 0.0 mm 182 W/m2
16:46 19.3 °C 17.3 °C 1022.2 hPa SSW 17.2 km/h 21.9 km/h 88% 0.0 mm 182 W/m2
16:51 19.3 °C 17.3 °C 1022.2 hPa SSW 12.2 km/h 21.9 km/h 88% 0.0 mm 218 W/m2
16:56 19.4 °C 17.4 °C 1022.2 hPa SSW 15.8 km/h 21.9 km/h 88% 0.0 mm 181 W/m2
17:01 19.4 °C 17.2 °C 1022.2 hPa SW 12.2 km/h 21.9 km/h 87% 0.0 mm 222 W/m2
17:06 19.6 °C 17.4 °C 1022.2 hPa SSW 15.8 km/h 21.9 km/h 87% 0.0 mm 220 W/m2
17:11 19.7 °C 17.5 °C 1022.2 hPa South 7.2 km/h 19.5 km/h 87% 0.0 mm 163 W/m2
17:16 19.4 °C 17.0 °C 1022.2 hPa SSE 1.1 km/h 19.5 km/h 86% 0.0 mm 82 W/m2
17:21 19.3 °C 17.1 °C 1022.2 hPa SSE 5.0 km/h 17.2 km/h 87% 0.0 mm 58 W/m2
17:26 18.9 °C 16.9 °C 1022.2 hPa SSE 1.1 km/h 8.7 km/h 88% 0.0 mm 86 W/m2
17:31 18.8 °C 17.1 °C 1022.2 hPa SE 2.6 km/h 8.7 km/h 90% 0.0 mm 48 W/m2
17:36 18.5 °C 16.8 °C 1022.6 hPa South 7.2 km/h 11.1 km/h 90% 0.0 mm 67 W/m2
17:41 18.4 °C 16.9 °C 1022.2 hPa South 5.0 km/h 11.1 km/h 91% 0.0 mm 88 W/m2
17:46 18.5 °C 17.2 °C 1022.2 hPa South 12.2 km/h 15.8 km/h 92% 0.0 mm 112 W/m2
17:51 18.7 °C 17.4 °C 1022.2 hPa SSW 15.8 km/h 21.9 km/h 92% 0.0 mm 138 W/m2
17:55 18.7 °C 17.2 °C 1022.2 hPa SSW 14.8 km/h 21.9 km/h 91% 0.0 mm 113 W/m2
18:00 18.8 °C 17.3 °C 1022.2 hPa South 14.8 km/h 21.9 km/h 91% 0.0 mm 81 W/m2
18:05 18.7 °C 17.1 °C 1022.2 hPa South 8.7 km/h 20.9 km/h 90% 0.0 mm 106 W/m2
18:10 18.9 °C 17.4 °C 1022.6 hPa South 8.7 km/h 20.9 km/h 91% 0.0 mm 127 W/m2
18:15 19.0 °C 17.2 °C 1022.2 hPa South 11.1 km/h 18.3 km/h 89% 0.0 mm 172 W/m2
18:20 19.3 °C 17.3 °C 1022.2 hPa South 15.8 km/h 18.3 km/h 88% 0.0 mm 279 W/m2
18:25 19.9 °C 17.5 °C 1022.6 hPa SSE 12.2 km/h 23.3 km/h 86% 0.0 mm 252 W/m2
18:30 19.9 °C 17.3 °C 1022.2 hPa South 13.4 km/h 23.3 km/h 85% 0.0 mm 187 W/m2
18:35 19.5 °C 16.9 °C 1022.2 hPa SSW 12.2 km/h 21.9 km/h 85% 0.0 mm 130 W/m2
18:40 19.2 °C 16.8 °C 1022.2 hPa South 12.2 km/h 21.9 km/h 86% 0.0 mm 134 W/m2
18:45 19.1 °C 16.9 °C 1022.2 hPa South 14.8 km/h 21.9 km/h 87% 0.0 mm 125 W/m2
18:50 19.0 °C 16.8 °C 1022.6 hPa South 9.7 km/h 21.9 km/h 87% 0.0 mm 110 W/m2
18:55 19.0 °C 16.8 °C 1022.2 hPa SSW 13.4 km/h 20.9 km/h 87% 0.0 mm 107 W/m2
19:00 19.0 °C 16.8 °C 1022.6 hPa South 12.2 km/h 20.9 km/h 87% 0.0 mm 84 W/m2
19:05 18.9 °C 17.1 °C 1022.2 hPa SSE 11.1 km/h 20.9 km/h 89% 0.0 mm 63 W/m2
19:10 18.8 °C 17.1 °C 1022.6 hPa SSE 8.7 km/h 18.3 km/h 90% 0.0 mm 58 W/m2
19:16 18.6 °C 16.9 °C 1022.6 hPa SE 2.6 km/h 14.8 km/h 90% 0.0 mm 47 W/m2
19:21 18.5 °C 17.0 °C 1022.9 hPa SE 2.6 km/h 12.2 km/h 91% 0.0 mm 24 W/m2
19:26 18.3 °C 16.8 °C 1022.6 hPa SE 3.5 km/h 12.2 km/h 91% 0.0 mm 18 W/m2
19:31 18.2 °C 16.9 °C 1022.6 hPa ESE 5.0 km/h 12.2 km/h 92% 0.0 mm 15 W/m2
19:36 18.1 °C 16.9 °C 1022.6 hPa SE 2.6 km/h 8.7 km/h 93% 0.0 mm 11 W/m2
19:41 17.9 °C 16.8 °C 1022.6 hPa Calm   8.7 km/h 93% 0.0 mm 5 W/m2
19:46 17.9 °C 16.8 °C 1022.6 hPa SE 2.6 km/h 8.7 km/h 93% 0.0 mm 5 W/m2
20:02 17.9 °C 17.1 °C 1022.6 hPa SE 6.1 km/h 11.1 km/h 95% 0.0 mm 0 W/m2
20:07 17.9 °C 17.3 °C 1022.6 hPa SSE 6.1 km/h 11.1 km/h 96% 0.0 mm 0 W/m2
20:12 17.9 °C 17.3 °C 1022.9 hPa South 6.1 km/h 15.8 km/h 96% 0.0 mm 0 W/m2
20:17 17.9 °C 17.1 °C 1022.9 hPa South 8.7 km/h 19.5 km/h 95% 0.0 mm 0 W/m2
20:20 18.0 °C 17.2 °C 1022.6 hPa South 7.2 km/h 19.5 km/h 95% 0.0 mm 0 W/m2
20:25 18.2 °C 17.2 °C 1022.9 hPa South 5.0 km/h 17.2 km/h 94% 0.0 mm 0 W/m2
20:30 18.3 °C 17.2 °C 1022.9 hPa South 3.5 km/h 13.4 km/h 93% 0.0 mm 0 W/m2
20:36 18.2 °C 17.2 °C 1022.9 hPa South 5.0 km/h 12.2 km/h 94% 0.0 mm 0 W/m2
20:41 18.2 °C 17.4 °C 1022.9 hPa South 3.5 km/h 14.8 km/h 95% 0.0 mm 0 W/m2
20:46 18.1 °C 17.3 °C 1022.9 hPa South 11.1 km/h 15.8 km/h 95% 0.0 mm 0 W/m2
20:51 18.0 °C 17.2 °C 1023.2 hPa South 6.1 km/h 15.8 km/h 95% 0.0 mm 0 W/m2
20:56 18.0 °C 17.2 °C 1023.2 hPa South 8.7 km/h 17.2 km/h 95% 0.0 mm 0 W/m2
21:01 18.1 °C 17.1 °C 1023.2 hPa South 9.7 km/h 17.2 km/h 94% 0.0 mm 0 W/m2
21:06 18.1 °C 16.9 °C 1023.2 hPa South 6.1 km/h 17.2 km/h 93% 0.0 mm 0 W/m2
21:11 18.2 °C 17.1 °C 1023.2 hPa South 9.7 km/h 17.2 km/h 93% 0.0 mm 0 W/m2
21:16 18.3 °C 17.2 °C 1023.2 hPa SSW 6.1 km/h 14.8 km/h 93% 0.0 mm 0 W/m2
21:21 18.3 °C 17.2 °C 1023.2 hPa SSW 5.0 km/h 13.4 km/h 93% 0.0 mm 0 W/m2
21:26 18.3 °C 17.3 °C 1023.2 hPa SSW 6.1 km/h 11.1 km/h 94% 0.0 mm 0 W/m2
21:31 18.2 °C 17.4 °C 1023.2 hPa SSW 6.1 km/h 12.2 km/h 95% 0.0 mm 0 W/m2
21:36 18.2 °C 17.2 °C 1023.2 hPa SSW 3.5 km/h 12.2 km/h 94% 0.0 mm 0 W/m2
21:41 18.2 °C 17.2 °C 1023.2 hPa SSW 2.6 km/h 12.2 km/h 94% 0.0 mm 0 W/m2
21:46 18.3 °C 17.3 °C 1023.2 hPa South 7.2 km/h 12.2 km/h 94% 0.0 mm 0 W/m2
21:51 18.3 °C 17.3 °C 1023.2 hPa SSW 3.5 km/h 11.1 km/h 94% 0.0 mm 0 W/m2
21:56 18.3 °C 17.3 °C 1023.2 hPa SSW 5.0 km/h 11.1 km/h 94% 0.0 mm 0 W/m2
22:01 18.3 °C 17.3 °C 1023.2 hPa SSW 5.0 km/h 9.7 km/h 94% 0.0 mm 0 W/m2
22:05 18.3 °C 17.5 °C 1023.2 hPa SW 3.5 km/h 9.7 km/h 95% 0.0 mm 0 W/m2
22:10 18.2 °C 17.4 °C 1023.2 hPa SW 1.1 km/h 8.7 km/h 95% 0.0 mm 0 W/m2
22:15 18.2 °C 17.4 °C 1023.2 hPa SW 3.5 km/h 8.7 km/h 95% 0.0 mm 0 W/m2
22:20 18.2 °C 17.4 °C 1023.2 hPa SW 2.6 km/h 6.1 km/h 95% 0.0 mm 0 W/m2
22:25 18.2 °C 17.4 °C 1023.2 hPa SW 3.5 km/h 6.1 km/h 95% 0.0 mm 0 W/m2
22:30 18.2 °C 17.4 °C 1023.2 hPa SW 2.6 km/h 6.1 km/h 95% 0.0 mm 0 W/m2
22:35 18.1 °C 17.3 °C 1023.2 hPa SW 6.1 km/h 7.2 km/h 95% 0.0 mm 0 W/m2
22:40 18.1 °C 17.3 °C 1023.2 hPa SW 3.5 km/h 8.7 km/h 95% 0.0 mm 0 W/m2
22:59 18.1 °C 16.9 °C 1023.6 hPa South 5.0 km/h 8.7 km/h 93% 0.0 mm 0 W/m2
23:04 18.1 °C 16.9 °C 1023.2 hPa South 3.5 km/h 8.7 km/h 93% 0.0 mm 0 W/m2
23:09 18.2 °C 16.9 °C 1023.2 hPa South 8.7 km/h 12.2 km/h 92% 0.0 mm 0 W/m2
23:14 18.2 °C 16.4 °C 1023.2 hPa South 6.1 km/h 12.2 km/h 89% 0.0 mm 0 W/m2
23:19 18.3 °C 15.9 °C 1023.2 hPa South 7.2 km/h 13.4 km/h 86% 0.0 mm 0 W/m2
23:24 18.4 °C 15.8 °C 1023.2 hPa South 6.1 km/h 13.4 km/h 85% 0.0 mm 0 W/m2
23:29 18.5 °C 16.1 °C 1023.2 hPa South 3.5 km/h 13.4 km/h 86% 0.0 mm 0 W/m2
23:34 18.6 °C 16.2 °C 1023.2 hPa South 11.1 km/h 18.3 km/h 86% 0.0 mm 0 W/m2
23:39 18.5 °C 15.9 °C 1023.2 hPa South 8.7 km/h 18.3 km/h 85% 0.0 mm 0 W/m2
23:44 18.5 °C 15.8 °C 1023.2 hPa South 9.7 km/h 15.8 km/h 84% 0.0 mm 0 W/m2
23:49 18.5 °C 15.9 °C 1023.2 hPa South 7.2 km/h 13.4 km/h 85% 0.0 mm 0 W/m2
23:54 18.5 °C 15.9 °C 1023.2 hPa South 5.0 km/h 13.4 km/h 85% 0.0 mm 0 W/m2
23:59 18.5 °C 16.1 °C 1023.2 hPa SSE 6.1 km/h 15.8 km/h 86% 0.0 mm 0 W/m2
Northern Hawkes Bay. New Zealand Historic Data
Compliments of Weather Underground - 2 mb